Regional Weather Roundup
Issued by NWS

Home | Current Version | Previous Version | Graphics & Text | Print | Product List | Glossary On
Versions: 1 2 3 4 5 6 7 8 9 10 11 12 13 14 15 16 17 18 19 20 21 22 23 24 25 26 27 28 29 30 31 32 33 34 35 36 37 38 39 40 41 42 43 44 45 46 47 48 49 50
000
ASUS43 KFSD 220710
RWRSD

WEATHER ROUNDUP FOR SOUTH DAKOTA
NATIONAL WEATHER SERVICE SIOUX FALLS SD
200 AM CDT TUE JUL 22 2014

NOTE: "FAIR" INDICATES FEW OR NO CLOUDS BELOW 12,000 FEET WITH NO
SIGNIFICANT WEATHER AND/OR OBSTRUCTIONS TO VISIBILITY.


SDZ001>005-009-010-012>017-220800-
NORTHWEST AND NORTH CENTRAL SOUTH DAKOTA

CITY           SKY/WX    TMP DP  RH WIND       PRES   REMARKS
BUFFALO          N/A     63  61  93 NE8       30.04
FAITH            N/A     66  63  90 NW16      30.08R
MOBRIDGE       CLEAR     64  63  96 NW8       29.97R
$$

SDZ012>016-024>037-041>051-057-063-072>074-220800-
SOUTHWEST AND SOUTH CENTRAL SOUTH DAKOTA

CITY           SKY/WX    TMP DP  RH WIND       PRES   REMARKS
RAPID CTY ARPT PTCLDY    66  62  87 N9        30.10F
PIERRE         PTCLDY    68  64  87 W12       30.00R
CUSTER         PTCLDY    66  56  70 N3        30.25R
ELLSWORTH AFB  MOCLDY    71  63  77 N6        30.11R
PHILIP         CLOUDY    70  65  84 NE8       30.05F
PINE RIDGE     PTCLDY    73  60  63 E7        30.09R
WINNER         FAIR      74  64  71 N6        29.97R
$$

SDZ004>011-016>023-039-040-220800-
NORTHEAST SOUTH DAKOTA

CITY           SKY/WX    TMP DP  RH WIND       PRES   REMARKS
ABERDEEN       CLEAR     64  63  96 W3        29.93R
WATERTOWN      CLEAR     67  62  84 N9        29.90R
SISSETON         N/A     67  65  93 NW12      29.86R
$$

SDZ017-020-022-023-036>040-048>070-220800-
SOUTHEAST SOUTH DAKOTA

CITY           SKY/WX    TMP DP  RH WIND       PRES   REMARKS
SIOUX FALLS    PTCLDY    74  73  97 W3        29.85R FOG
HURON          CLEAR     70  62  76 N13       29.89R
CHAMBERLAIN    CLEAR     73  61  66 NE6       29.95R
MITCHELL       CLEAR     74  64  71 N12       29.89R
YANKTON        CLEAR     79  73  83 W8        29.84S
$$

ABBREVIATIONS USED IN REMARKS
   TC - TEMPERATURE IN CELSIUS
  WCI - WIND CHILL INDEX
   HX - HEAT INDEX
  VSB - VISIBILITY




USA.gov is the U.S. government's official web portal to all federal, state and local government web resources and services.